User: anonymous   Login
Location: Estes Park
(40.3770°N, 105.5210°W)
Time: 22:59:18
(UTC-06:00)
Language:

N. Korean satellite - Orbit

View from above orbital plane
View from above orbital plane
View from above satellite
View from above satellite

Ground track
Ground track

The orbit data is extracted from the following two-line orbital elements,

1 39026U 12072A   18171.49827288 +.00001156 +00000-0 +45811-4 0  9994
2 39026 097.2100 181.7508 0037844 313.2713 046.5370 15.26768707306101
Epoch (UTC): 20 June 2018 11:57:30
Eccentricity: 0.0037844
inclination: 97.2100°
perigee height: 459 km
apogee height: 511 km
right ascension of ascending node: 181.7508°
argument of perigee: 313.2713°
revolutions per day: 15.26768707
mean anomaly at epoch: 46.5370°
orbit number at epoch: 30610

The dashed part of the orbit path shows where the satellite is in the earth's shadow,  

DLR